sat.trackr.live / text

‹ back to catalog

ISS OBJECT YN

NORAD 69798 · 1998-067YN

PAYLOAD ACTIVE UNKNOWN

§ Identity

Operator
Country
TBD
Launch date
1998-11-20
Launch site
TYMSC
Launch vehicle
Mass (kg)
RCS (m²)

External: N2YO · Heavens-Above · Gunter

§ Orbital elements

Epoch: 2026-09-18T05:01:40.130400Z

Period
92.68 min
Inclination
51.6306°
Eccentricity
0.0009209
Mean motion
15.53816284 rev/d
Perigee alt
399.3 km
Apogee alt
411.8 km
Semi-major
6,783.7 km
B*
4.3598e-4
RAAN
198.2402°
Arg perigee
172.5035°
Mean anomaly
187.6094°
Rev number
1,209

§ Raw data

ISS OBJECT YN1 69798U 98067YN  26261.20949225  .00028200  00000+0  43598-3 0  99922 69798  51.6306 198.2402 0009209 172.5035 187.6094 15.53816284 12091

JSON: /api/v1/satellites/69798 · /tle

For live sub-satellite position, see the globe view (requires WebGL).

§ Visibility from observer

Set your observer location to see the next 7 days of passes ≥ 10°. The values pass through the URL so the page stays shareable.

No JS? Fill the form by hand. The geolocation button needs JavaScript.